Regional Weather Roundup
Issued by NWS New Orleans/Baton Rouge, LA

Home | Current Version | Previous Version | Graphics & Text | Print | Product List | Glossary On
Versions: 1 2 3 4 5 6 7 8 9 10 11 12 13 14 15 16 17 18 19 20 21 22 23 24 25 26 27 28 29 30 31 32 33 34 35 36 37 38 39 40 41 42 43 44 45 46 47 48 49 50
969
ASUS44 KLIX 290205
RWRLIX
NEW ORLEANS REGIONAL WEATHER ROUNDUP
NATIONAL WEATHER SERVICE NEW ORLEANS LA
900 PM CDT MON JUL 28 2014

NOTE: "FAIR" INDICATES FEW OR NO CLOUDS BELOW 12,000 FEET WITH NO
      SIGNIFICANT WEATHER AND/OR OBSTRUCTIONS TO VISIBILITY.
      SKY/WX - SKY CONDITION AND SIGNIFICANT WEATHER.
      TMP - AIR TEMPERATURE.     DP    - DEWPOINT TEMPERATURE.
      RH  - RELATIVE HUMIDITY.   PRES  - PRESSURE.
      HI  - HEAT INDEX.          WCI   - WIND CHILL INDEX.

*  THESE STATIONS ARE NOT NWS OR FAA STATIONS AND ARE NOT UNDER
   NWS QUALITY CONTROL.

LAZ038-040-048-061>063-065>067-069-290300-
SOUTHEAST LOUISIANA

CITY           SKY/WX    TMP DP  RH WIND       PRES   REMARKS
N.O. AUDUBON     N/A     88  76  67 MISG        N/A  HX  98
N.O. INTL ARPT CLOUDY    84  75  74 W7        29.99R
N.O. LAKEFRONT PTCLDY    88  78  72 W16       29.99R HX 101
N.O. DOWNTOWN*   N/A     90  72  55 W5        30.00R HX  96
SLIDELL        TSTM      80  74  81 CALM      30.00R
BATON ROUGE    CLOUDY    82  74  76 NW8       30.02R
BOOTHVILLE     PTCLDY    86  80  82 W6        30.00R HX 101
BELLE CHASSE   MOCLDY    85  74  69 W5        29.99R
BOGALUSA*        N/A     81  73  76 NW5       30.01R
GALLIANO*      NOT AVBL
NEW ROADS*     LGT RAIN  76  74  91 CALM      30.04R
GONZALES*        N/A     83  81  91 W3        30.00R HX  97
HAMMOND*       MOCLDY    84  75  74 NW5       30.02R
HOUMA*         CLEAR     83  76  79 CALM      30.01R
PORT FOURCHON* PTCLDY    86  79  79 W13       30.02R HX  99

$$

MSZ070-080>082-290300-
SOUTHERN MISSISSIPPI

CITY           SKY/WX    TMP DP  RH WIND       PRES   REMARKS
MCCOMB         PTCLDY    79  74  84 NW7       30.03R
GULFPORT       PTCLDY    88  76  67 W3        29.97R HX  99
BILOXI         MOCLDY    86  78  78 VRB2      29.98R HX  98
PASCAGOULA     CLOUDY    82  75  79 N3        29.97R
STENNIS ARPT*  PTCLDY   N/A N/A N/A CALM      29.98R

$$

COASTAL OBSERVATIONS
LAKE AND NEARSHORE STATIONS

STATION/POSITION TIME  TEMP    WIND        PRES    WAVE
                       AIR SEA DIR/SP/G            HT/PER
                 (UTC) (F)     (DEG/KT/KT) (MB)    (FT/S)
PASCAGOULA       0200   87     280/  6/ 10 1014.0
WAVELAND YACHT   0200   86     290/  4/  6 1014.6
GRAND ISLE       0200   87 89  300/ 14/ 16 1016.4
SOUTHWEST PASS   0200   85 85  290/ 14/ 24 1016.2
NEW CANAL        0200   88 86  270/  6/ 10 1016.0
SHELL BEACH      0200   86 84  250/  7/  8 1015.4

OFFSHORE STATIONS

STATION/POSITION TIME  TEMP    WIND        PRES    WAVE
                       AIR SEA DIR/SP/G            HT/PER
                 (UTC) (F)     (DEG/KT/KT) (MB)    (FT/S)
64 S DAUPHIN ISL 0112   85 86  260/ 16/ 17 1015.3

$$




USA.gov is the U.S. government's official web portal to all federal, state and local government web resources and services.